Time,TemperatureF,DewpointF,PressureIn,WindDirection,WindDirectionDegrees,WindSpeedMPH,WindSpeedGustMPH,Humidity,HourlyPrecipIn,Conditions,Clouds,dailyrainin,SoftwareType,DateUTC
2013-03-07 00:02:00,33.0,31.0,-100.00,ENE,70,4.0,4.0,95,0.00,,,-99.99,,2013-03-07 05:02:00,
2013-03-07 00:12:00,33.0,32.0,-100.00,ENE,60,2.0,4.0,96,0.00,,,-99.99,,2013-03-07 05:12:00,
2013-03-07 00:22:00,33.0,31.0,-100.00,East,80,3.0,4.0,96,0.00,,,-99.99,,2013-03-07 05:22:00,
2013-03-07 00:32:00,33.0,32.0,-100.00,ENE,70,3.0,4.0,96,0.00,,,-99.99,,2013-03-07 05:32:00,
2013-03-07 00:42:00,33.0,32.0,-100.00,ENE,75,7.0,9.0,96,0.00,,,-99.99,,2013-03-07 05:42:00,
2013-03-07 00:52:00,33.0,32.0,-100.00,ENE,65,9.0,11.0,96,0.00,,,-99.99,,2013-03-07 05:52:00,
2013-03-07 01:01:00,33.0,32.0,-100.00,ENE,70,9.0,12.0,96,0.00,,,-99.99,,2013-03-07 06:01:00,
2013-03-07 01:11:00,32.0,32.0,-100.00,ENE,70,6.0,9.0,96,0.00,,,-99.99,,2013-03-07 06:11:00,
2013-03-07 01:21:00,32.0,32.0,-100.00,ENE,65,7.0,8.0,97,0.00,,,-99.99,,2013-03-07 06:21:00,
2013-03-07 01:32:00,32.0,32.0,-100.00,NE,55,5.0,9.0,97,0.00,,,-99.99,,2013-03-07 06:32:00,
2013-03-07 01:42:00,32.0,32.0,-100.00,ENE,65,6.0,9.0,97,0.00,,,-99.99,,2013-03-07 06:42:00,
2013-03-07 01:52:00,32.0,32.0,-100.00,ENE,65,5.0,9.0,98,0.00,,,-99.99,,2013-03-07 06:52:00,
2013-03-07 02:01:00,32.0,32.0,-100.00,NE,45,7.0,10.0,98,0.00,,,-99.99,,2013-03-07 07:01:00,
2013-03-07 02:11:00,32.0,32.0,-100.00,NE,55,7.0,10.0,98,0.00,,,-99.99,,2013-03-07 07:11:00,
2013-03-07 02:21:00,32.0,32.0,-100.00,NE,50,6.0,11.0,98,0.00,,,-99.99,,2013-03-07 07:21:00,
2013-03-07 02:32:00,32.0,32.0,-100.00,NE,50,6.0,11.0,98,0.00,,,-99.99,,2013-03-07 07:32:00,
2013-03-07 02:42:00,32.0,32.0,-100.00,NE,50,6.0,11.0,98,0.00,,,-99.99,,2013-03-07 07:42:00,
2013-03-07 02:52:00,32.0,32.0,-100.00,ENE,60,6.0,9.0,98,0.00,,,-99.99,,2013-03-07 07:52:00,
2013-03-07 03:03:00,32.0,32.0,-100.00,ENE,60,7.0,10.0,98,0.00,,,-99.99,,2013-03-07 08:03:00,
2013-03-07 03:12:00,32.0,32.0,-100.00,ENE,65,7.0,9.0,98,0.00,,,-99.99,,2013-03-07 08:12:00,
2013-03-07 03:23:00,32.0,32.0,-100.00,NE,55,7.0,9.0,98,0.00,,,-99.99,,2013-03-07 08:23:00,
2013-03-07 03:33:00,32.0,32.0,-100.00,NE,55,6.0,10.0,98,0.00,,,-99.99,,2013-03-07 08:33:00,
2013-03-07 03:44:00,32.0,32.0,-100.00,ENE,65,6.0,9.0,98,0.00,,,-99.99,,2013-03-07 08:44:00,
2013-03-07 03:53:00,32.0,32.0,-100.00,ENE,60,4.0,8.0,98,0.00,,,-99.99,,2013-03-07 08:53:00,
2013-03-07 04:03:00,32.0,32.0,-100.00,ENE,60,4.0,8.0,98,0.00,,,-99.99,,2013-03-07 09:03:00,
2013-03-07 04:13:00,32.0,32.0,-100.00,ENE,60,4.0,8.0,98,0.00,,,-99.99,,2013-03-07 09:13:00,
2013-03-07 04:23:00,32.0,32.0,-100.00,NE,50,3.0,6.0,98,0.00,,,-99.99,,2013-03-07 09:23:00,
2013-03-07 04:33:00,32.0,32.0,-100.00,ENE,60,3.0,6.0,98,0.00,,,-99.99,,2013-03-07 09:33:00,
2013-03-07 04:43:00,32.0,32.0,-100.00,NE,55,3.0,5.0,98,0.00,,,-99.99,,2013-03-07 09:43:00,
2013-03-07 04:53:00,32.0,32.0,-100.00,ENE,60,2.0,6.0,98,0.00,,,-99.99,,2013-03-07 09:53:00,
2013-03-07 05:03:00,32.0,32.0,-100.00,NE,45,3.0,6.0,98,0.00,,,-99.99,,2013-03-07 10:03:00,
2013-03-07 05:13:00,32.0,31.0,-100.00,NE,55,4.0,6.0,98,0.00,,,-99.99,,2013-03-07 10:13:00,
2013-03-07 05:23:00,32.0,32.0,-100.00,NE,45,4.0,7.0,99,0.00,,,-99.99,,2013-03-07 10:23:00,
2013-03-07 05:33:00,32.0,32.0,-100.00,NE,55,4.0,8.0,99,0.00,,,-99.99,,2013-03-07 10:33:00,
2013-03-07 05:42:00,32.0,32.0,-100.00,NE,55,6.0,7.0,99,0.00,,,-99.99,,2013-03-07 10:42:00,
2013-03-07 05:52:00,32.0,32.0,-100.00,ENE,60,5.0,8.0,99,0.00,,,-99.99,,2013-03-07 10:52:00,
2013-03-07 06:03:00,32.0,32.0,-100.00,NE,40,6.0,9.0,99,0.00,,,-99.99,,2013-03-07 11:03:00,
2013-03-07 06:12:00,32.0,32.0,-100.00,NE,50,5.0,9.0,99,0.00,,,-99.99,,2013-03-07 11:12:00,
2013-03-07 06:23:00,32.0,32.0,-100.00,NE,55,4.0,9.0,99,0.00,,,-99.99,,2013-03-07 11:23:00,
2013-03-07 06:33:00,32.0,32.0,-100.00,NE,40,6.0,9.0,99,0.00,,,-99.99,,2013-03-07 11:33:00,
2013-03-07 06:43:00,32.0,32.0,-100.00,NE,40,6.0,9.0,99,0.00,,,-99.99,,2013-03-07 11:43:00,
2013-03-07 06:53:00,32.0,32.0,-100.00,NE,50,5.0,7.0,99,0.00,,,-99.99,,2013-03-07 11:53:00,
2013-03-07 07:03:00,32.0,32.0,-100.00,NE,40,6.0,7.0,99,0.00,,,-99.99,,2013-03-07 12:03:00,
2013-03-07 07:12:00,32.0,32.0,-100.00,NE,55,4.0,7.0,99,0.00,,,-99.99,,2013-03-07 12:12:00,
2013-03-07 07:23:00,32.0,32.0,-100.00,NE,50,4.0,7.0,99,0.00,,,-99.99,,2013-03-07 12:23:00,
2013-03-07 07:33:00,32.0,32.0,-100.00,NE,55,6.0,9.0,99,0.00,,,-99.99,,2013-03-07 12:33:00,
2013-03-07 07:42:00,32.0,32.0,-100.00,NE,55,6.0,9.0,99,0.00,,,-99.99,,2013-03-07 12:42:00,
2013-03-07 07:52:00,32.0,32.0,-100.00,NE,55,6.0,9.0,99,0.00,,,-99.99,,2013-03-07 12:52:00,
2013-03-07 08:03:00,32.0,32.0,-100.00,NE,45,7.0,10.0,99,0.00,,,-99.99,,2013-03-07 13:03:00,
2013-03-07 08:12:00,32.0,32.0,-100.00,NE,45,6.0,10.0,99,0.00,,,-99.99,,2013-03-07 13:12:00,
2013-03-07 08:23:00,32.0,32.0,-100.00,ENE,65,6.0,9.0,99,0.00,,,-99.99,,2013-03-07 13:23:00,
2013-03-07 08:32:00,32.0,32.0,-100.00,ENE,60,6.0,9.0,99,0.00,,,-99.99,,2013-03-07 13:32:00,
2013-03-07 08:42:00,32.0,32.0,-100.00,NE,45,6.0,9.0,99,0.00,,,-99.99,,2013-03-07 13:42:00,
2013-03-07 08:53:00,32.0,32.0,-100.00,NE,35,6.0,11.0,99,0.00,,,-99.99,,2013-03-07 13:53:00,
2013-03-07 09:02:00,32.0,32.0,-100.00,NE,40,6.0,9.0,99,0.00,,,-99.99,,2013-03-07 14:02:00,
2013-03-07 09:12:00,32.0,32.0,-100.00,NE,40,6.0,9.0,99,0.00,,,-99.99,,2013-03-07 14:12:00,
2013-03-07 09:23:00,32.0,32.0,-100.00,NE,55,7.0,11.0,99,0.00,,,-99.99,,2013-03-07 14:23:00,
2013-03-07 09:33:00,33.0,33.0,-100.00,NE,40,7.0,11.0,99,0.00,,,-99.99,,2013-03-07 14:33:00,
2013-03-07 09:42:00,33.0,33.0,-100.00,NE,45,5.0,11.0,99,0.00,,,-99.99,,2013-03-07 14:42:00,
2013-03-07 09:54:00,33.0,33.0,-100.00,NE,45,6.0,11.0,99,0.00,,,-99.99,,2013-03-07 14:54:00,
2013-03-07 10:03:00,33.0,33.0,-100.00,ENE,65,6.0,9.0,99,0.00,,,-99.99,,2013-03-07 15:03:00,
2013-03-07 10:12:00,33.0,33.0,-100.00,NE,45,9.0,11.0,99,0.00,,,-99.99,,2013-03-07 15:12:00,
2013-03-07 10:23:00,33.0,33.0,-100.00,ENE,60,6.0,12.0,98,0.00,,,-99.99,,2013-03-07 15:23:00,
2013-03-07 10:32:00,34.0,33.0,-100.00,NE,45,7.0,11.0,97,0.00,,,-99.99,,2013-03-07 15:32:00,
2013-03-07 10:42:00,34.0,33.0,-100.00,NE,45,6.0,9.0,97,0.00,,,-99.99,,2013-03-07 15:42:00,
2013-03-07 10:52:00,34.0,33.0,-100.00,NE,45,7.0,9.0,96,0.00,,,-99.99,,2013-03-07 15:52:00,
2013-03-07 11:02:00,34.0,33.0,-100.00,ENE,60,6.0,10.0,96,0.00,,,-99.99,,2013-03-07 16:02:00,
2013-03-07 11:13:00,34.0,33.0,-100.00,ENE,60,6.0,11.0,96,0.00,,,-99.99,,2013-03-07 16:13:00,
2013-03-07 11:23:00,34.0,33.0,-100.00,NE,40,6.0,11.0,96,0.00,,,-99.99,,2013-03-07 16:23:00,
2013-03-07 11:33:00,34.0,33.0,-100.00,NE,50,5.0,11.0,96,0.00,,,-99.99,,2013-03-07 16:33:00,
2013-03-07 11:43:00,34.0,33.0,-100.00,NE,50,7.0,10.0,96,0.00,,,-99.99,,2013-03-07 16:43:00,
2013-03-07 11:52:00,34.0,33.0,-100.00,NE,50,7.0,10.0,96,0.00,,,-99.99,,2013-03-07 16:52:00,
2013-03-07 12:02:00,35.0,34.0,-100.00,NE,55,6.0,9.0,95,0.00,,,-99.99,,2013-03-07 17:02:00,
2013-03-07 12:12:00,36.0,34.0,-100.00,ENE,60,5.0,11.0,94,0.00,,,-99.99,,2013-03-07 17:12:00,
2013-03-07 12:22:00,36.0,34.0,-100.00,ENE,65,6.0,11.0,93,0.00,,,-99.99,,2013-03-07 17:22:00,
2013-03-07 12:33:00,36.0,34.0,-100.00,NE,50,6.0,10.0,92,0.00,,,-99.99,,2013-03-07 17:33:00,
2013-03-07 12:43:00,36.0,34.0,-100.00,NE,45,6.0,9.0,91,0.00,,,-99.99,,2013-03-07 17:43:00,
2013-03-07 12:53:00,36.0,34.0,-100.00,ENE,60,6.0,12.0,90,0.00,,,-99.99,,2013-03-07 17:53:00,
2013-03-07 13:04:00,37.0,34.0,-100.00,East,80,9.0,12.0,89,0.00,,,-99.99,,2013-03-07 18:04:00,
2013-03-07 13:12:00,37.0,33.0,-100.00,NE,55,6.0,14.0,88,0.00,,,-99.99,,2013-03-07 18:12:00,
2013-03-07 13:22:00,37.0,33.0,-100.00,ENE,60,7.0,13.0,87,0.00,,,-99.99,,2013-03-07 18:22:00,
2013-03-07 13:32:00,37.0,33.0,-100.00,ENE,60,7.0,13.0,87,0.00,,,-99.99,,2013-03-07 18:32:00,
2013-03-07 13:42:00,37.0,33.0,-100.00,ENE,60,8.0,15.0,87,0.00,,,-99.99,,2013-03-07 18:42:00,
2013-03-07 13:52:00,37.0,33.0,-100.00,ENE,75,9.0,12.0,88,0.00,,,-99.99,,2013-03-07 18:52:00,
2013-03-07 14:03:00,36.0,33.0,-100.00,ENE,65,9.0,13.0,88,0.00,,,-99.99,,2013-03-07 19:03:00,
2013-03-07 14:12:00,36.0,33.0,-100.00,ENE,65,11.0,14.0,89,0.00,,,-99.99,,2013-03-07 19:12:00,
2013-03-07 14:23:00,36.0,33.0,-100.00,ENE,65,7.0,12.0,88,0.00,,,-99.99,,2013-03-07 19:23:00,
2013-03-07 14:35:00,36.0,33.0,-100.00,ENE,75,10.0,13.0,91,0.00,,,-99.99,,2013-03-07 19:35:00,
2013-03-07 14:43:00,35.0,33.0,-100.00,NE,45,9.0,16.0,91,0.00,,,-99.99,,2013-03-07 19:43:00,
2013-03-07 14:52:00,35.0,33.0,-100.00,ENE,65,9.0,14.0,92,0.00,,,-99.99,,2013-03-07 19:52:00,
2013-03-07 15:02:00,35.0,33.0,-100.00,ENE,65,8.0,12.0,93,0.00,,,-99.99,,2013-03-07 20:02:00,
2013-03-07 15:13:00,35.0,33.0,-100.00,ENE,65,7.0,12.0,94,0.00,,,-99.99,,2013-03-07 20:13:00,
2013-03-07 15:22:00,33.0,32.0,-100.00,East,80,10.0,14.0,94,0.00,,,-99.99,,2013-03-07 20:22:00,
2013-03-07 15:43:00,33.0,32.0,-100.00,ENE,70,9.0,14.0,94,0.00,,,-99.99,,2013-03-07 20:43:00,
2013-03-07 15:53:00,34.0,33.0,-100.00,East,90,9.0,14.0,94,0.00,,,-99.99,,2013-03-07 20:53:00,
2013-03-07 16:03:00,34.0,33.0,-100.00,East,90,9.0,14.0,94,0.00,,,-99.99,,2013-03-07 21:03:00,
2013-03-07 16:12:00,34.0,33.0,-100.00,East,90,9.0,14.0,94,0.00,,,-99.99,,2013-03-07 21:12:00,
2013-03-07 16:22:00,34.0,32.0,-100.00,East,80,7.0,12.0,94,0.00,,,-99.99,,2013-03-07 21:22:00,
2013-03-07 16:33:00,33.0,32.0,-100.00,East,90,9.0,13.0,94,0.00,,,-99.99,,2013-03-07 21:33:00,
2013-03-07 16:43:00,33.0,32.0,-100.00,ENE,70,11.0,14.0,95,0.00,,,-99.99,,2013-03-07 21:43:00,
2013-03-07 16:53:00,33.0,32.0,-100.00,East,80,8.0,14.0,96,0.00,,,-99.99,,2013-03-07 21:53:00,
2013-03-07 17:02:00,33.0,32.0,-100.00,East,80,8.0,14.0,96,0.00,,,-99.99,,2013-03-07 22:02:00,
2013-03-07 17:12:00,33.0,32.0,-100.00,ENE,70,6.0,11.0,97,0.00,,,-99.99,,2013-03-07 22:12:00,
2013-03-07 17:22:00,33.0,32.0,-100.00,East,95,8.0,11.0,97,0.00,,,-99.99,,2013-03-07 22:22:00,
2013-03-07 17:33:00,33.0,32.0,-100.00,ENE,75,8.0,14.0,97,0.00,,,-99.99,,2013-03-07 22:33:00,
2013-03-07 17:43:00,32.0,32.0,-100.00,East,80,8.0,12.0,98,0.00,,,-99.99,,2013-03-07 22:43:00,
2013-03-07 17:53:00,32.0,32.0,-100.00,East,80,9.0,11.0,98,0.00,,,-99.99,,2013-03-07 22:53:00,
2013-03-07 18:03:00,32.0,32.0,-100.00,East,80,9.0,14.0,98,0.00,,,-99.99,,2013-03-07 23:03:00,
2013-03-07 18:13:00,32.0,32.0,-100.00,East,85,9.0,12.0,98,0.00,,,-99.99,,2013-03-07 23:13:00,
2013-03-07 18:22:00,32.0,32.0,-100.00,East,90,7.0,14.0,98,0.00,,,-99.99,,2013-03-07 23:22:00,
2013-03-07 18:34:00,32.0,32.0,-100.00,East,90,7.0,14.0,98,0.00,,,-99.99,,2013-03-07 23:34:00,
2013-03-07 18:53:00,32.0,32.0,-100.00,ENE,70,7.0,11.0,98,0.00,,,-99.99,,2013-03-07 23:53:00,
2013-03-07 19:04:00,32.0,32.0,-100.00,ENE,70,7.0,11.0,98,0.00,,,-99.99,,2013-03-08 00:04:00,
2013-03-07 19:13:00,31.0,31.0,-100.00,East,85,8.0,12.0,98,0.55,,,-99.99,,2013-03-08 00:13:00,
2013-03-07 19:23:00,31.0,31.0,-100.00,East,85,9.0,13.0,98,0.55,,,-99.99,,2013-03-08 00:23:00,
2013-03-07 19:34:00,31.0,31.0,-100.00,East,80,8.0,13.0,98,0.00,,,-99.99,,2013-03-08 00:34:00,
2013-03-07 19:44:00,31.0,31.0,-100.00,East,85,7.0,13.0,98,0.55,,,-99.99,,2013-03-08 00:44:00,
2013-03-07 19:52:00,31.0,31.0,-100.00,East,90,9.0,14.0,98,0.55,,,-99.99,,2013-03-08 00:52:00,
2013-03-07 20:11:00,31.0,30.0,-100.00,ENE,75,11.0,16.0,98,0.55,,,-99.99,,2013-03-08 01:11:00,
2013-03-07 20:22:00,31.0,30.0,-100.00,East,90,9.0,16.0,98,0.55,,,-99.99,,2013-03-08 01:22:00,
2013-03-07 20:33:00,31.0,30.0,-100.00,East,90,9.0,13.0,98,1.10,,,-99.99,,2013-03-08 01:33:00,
2013-03-07 20:42:00,30.0,30.0,-100.00,East,95,12.0,17.0,98,1.10,,,-99.99,,2013-03-08 01:42:00,
2013-03-07 20:52:00,30.0,30.0,-100.00,East,85,11.0,18.0,98,0.00,,,-99.99,,2013-03-08 01:52:00,
2013-03-07 21:02:00,30.0,30.0,-100.00,East,90,11.0,16.0,98,0.00,,,-99.99,,2013-03-08 02:02:00,
2013-03-07 21:12:00,30.0,30.0,-100.00,East,90,11.0,16.0,98,0.00,,,-99.99,,2013-03-08 02:12:00,
2013-03-07 21:22:00,30.0,30.0,-100.00,East,90,8.0,14.0,98,0.00,,,-99.99,,2013-03-08 02:22:00,
2013-03-07 21:32:00,30.0,29.0,-100.00,East,90,11.0,20.0,98,0.00,,,-99.99,,2013-03-08 02:32:00,
2013-03-07 21:42:00,29.0,29.0,-100.00,East,90,14.0,18.0,98,0.00,,,-99.99,,2013-03-08 02:42:00,
2013-03-07 21:53:00,29.0,29.0,-100.00,East,90,12.0,16.0,98,0.00,,,-99.99,,2013-03-08 02:53:00,
2013-03-07 22:02:00,29.0,29.0,-100.00,East,90,11.0,17.0,98,0.00,,,-99.99,,2013-03-08 03:02:00,
2013-03-07 22:12:00,29.0,29.0,-100.00,East,95,10.0,17.0,98,0.00,,,-99.99,,2013-03-08 03:12:00,
2013-03-07 22:22:00,29.0,29.0,-100.00,East,95,10.0,17.0,98,0.00,,,-99.99,,2013-03-08 03:22:00,
2013-03-07 22:33:00,29.0,29.0,-100.00,East,90,9.0,16.0,98,0.00,,,-99.99,,2013-03-08 03:33:00,
2013-03-07 22:52:00,29.0,29.0,-100.00,East,85,9.0,16.0,98,0.00,,,-99.99,,2013-03-08 03:52:00,
2013-03-07 23:02:00,29.0,28.0,-100.00,East,90,11.0,17.0,97,0.00,,,-99.99,,2013-03-08 04:02:00,
2013-03-07 23:11:00,29.0,28.0,-100.00,East,100,9.0,17.0,97,0.00,,,-99.99,,2013-03-08 04:11:00,
2013-03-07 23:22:00,29.0,28.0,-100.00,East,95,10.0,13.0,97,0.00,,,-99.99,,2013-03-08 04:22:00,
2013-03-07 23:32:00,29.0,28.0,-100.00,East,85,11.0,15.0,97,0.00,,,-99.99,,2013-03-08 04:32:00,
2013-03-07 23:42:00,29.0,28.0,-100.00,East,90,13.0,18.0,97,0.00,,,-99.99,,2013-03-08 04:42:00,
2013-03-07 23:52:00,28.0,27.0,-100.00,East,90,13.0,18.0,96,0.00,,,-99.99,,2013-03-08 04:52:00,